Wind_Speed
7 6 6 5 5 5 5 5 5 5 5 6 7 7 7 7 8 8 8 8 9 10 13 14 15 15 15 15 14 14 14 15 16 16 16 15 15 14 17 18 17 15 13 11 9 7 6 4 3 3 4 4 4 5 5 6 8 7 11 11 8 8 7 2 4 8 9 13 18 21 19 19 18 18 18 17 17 17 18 14 13 17 19 19 18 18 20 20
7 6 6 6 6 6 6 6 6 5 5 6 6 7 8 7 8 8 9 9 9 9 10 12 14 15 15 15 15 15 15 15 15 16 17 16 15 15 16 17 18 17 14 12 10 9 8 5 3 3 3 3 4 7 6 6 6 6 9 10 8 11 11 7 6 9 12 16 19 21 20 19 18 18 18 17 17 16 18 17 18 23 21 18 17 18 20 19
7 6 6 6 6 7 7 7 7 7 6 6 6 6 7 8 8 8 8 9 9 9 9 10 12 14 15 16 16 15 15 14 15 17 17 17 16 15 15 15 17 18 16 14 12 11 9 7 1 2 2 3 6 6 7 7 6 6 9 9 10 13 13 9 7 11 15 19 21 22 20 19 18 18 16 16 17 16 18 22 24 25 22 18 17 20 20 19
6 6 5 5 6 6 7 7 8 8 8 8 7 7 6 7 7 8 9 9 9 9 9 10 10 12 14 16 15 15 15 12 16 18 14 16 18 16 15 14 16 18 18 16 14 12 10 9 5 4 6 7 8 7 7 8 8 8 9 9 11 11 10 8 6 14 19 21 22 22 20 19 18 17 15 16 16 17 19 22 24 21 19 19 19 20 19 19
5 5 5 5 5 5 6 6 7 8 8 8 8 8 8 7 7 8 8 9 9 9 10 9 9 10 10 14 14 15 12 6 16 19 12 14 17 17 16 14 15 17 18 17 16 13 11 10 6 5 7 6 8 8 8 7 7 9 9 10 11 9 5 5 9 17 21 23 21 20 19 19 17 15 16 15 15 19 21 21 20 16 17 19 19 19 19 18
6 5 4 4 4 5 5 6 7 7 8 8 8 9 9 9 8 8 8 9 9 9 10 9 10 9 9 11 12 14 10 6 16 19 12 15 16 16 17 15 14 16 18 18 17 14 12 10 7 6 7 6 7 8 8 5 5 8 10 10 9 7 3 4 13 20 24 23 21 19 18 17 16 15 16 14 13 18 22 21 18 17 17 18 18 18 18 18
6 5 4 4 4 5 5 6 7 7 8 8 9 9 9 10 9 9 8 8 9 10 10 10 10 9 8 9 10 12 10 8 18 18 13 14 15 16 17 16 14 15 17 18 17 16 13 10 7 6 7 8 8 7 7 6 5 8 10 9 6 6 9 13 19 24 24 23 21 19 18 16 15 16 16 13 14 16 21 22 19 19 19 18 18 17 18 18
7 6 5 4 4 5 6 6 7 7 8 8 9 9 9 10 9 9 9 9 9 9 10 10 10 9 8 8 8 9 6 9 20 18 12 12 12 15 17 16 15 14 16 18 18 17 14 10 8 7 8 8 8 8 8 6 5 8 9 5 4 9 14 19 23 25 23 22 23 21 18 17 15 15 15 15 17 16 19 23 20 19 20 19 18 17 17 17
7 7 6 5 5 5 6 6 7 7 8 8 9 9 9 9 9 9 9 9 9 8 9 10 10 9 8 7 6 4 5 13 22 18 13 12 11 13 16 16 15 14 15 17 19 19 14 10 8 8 10 10 9 7 7 6 5 7 8 4 4 11 15 18 21 21 20 21 22 21 18 18 15 13 14 15 17 18 20 23 21 21 21 20 19 18 18 17
8 7 7 6 6 6 6 6 7 7 8 8 8 9 9 10 10 10 9 9 9 8 9 8 10 9 7 7 7 4 8 16 21 19 16 15 12 12 15 16 16 14 14 16 19 19 16 10 7 7 9 11 9 7 7 5 3 7 7 2 6 12 14 15 16 16 19 20 20 19 18 17 15 13 15 16 18 20 22 23 22 22 21 20 20 19 18 18
8 8 7 6 6 6 6 6 7 7 7 8 8 9 10 10 10 10 10 10 9 9 9 8 9 8 6 7 9 3 12 15 19 20 16 15 14 12 13 15 15 14 14 15 18 18 17 12 7 8 7 8 8 8 9 6 3 7 5 2 8 12 11 12 13 14 19 20 18 18 17 16 13 12 15 18 20 21 22 23 23 23 22 21 20 19 20 19
8 8 7 6 6 6 6 6 7 7 8 8 9 9 10 11 10 10 10 10 10 10 9 8 8 7 5 5 8 11 17 15 16 16 13 14 14 12 12 14 15 15 14 12 12 15 17 13 9 12 10 7 7 5 7 6 5 11 8 2 9 11 10 10 11 14 16 18 17 17 15 14 13 12 14 18 22 22 22 23 23 22 22 22 21 20 20 19
8 7 7 6 6 6 6 7 7 7 8 8 9 9 10 10 10 10 10 10 9 9 10 9 7 6 3 5 9 20 18 14 13 10 10 13 12 13 12 13 15 15 15 11 8 12 14 13 12 15 12 9 8 7 7 7 7 12 10 4 8 10 10 10 11 13 15 15 15 15 13 13 12 13 16 18 23 25 23 23 23 22 22 22 21 21 21 20
8 7 6 6 6 6 6 7 8 8 9 9 9 9 9 10 10 10 10 10 9 10 10 9 7 4 3 5 11 16 15 14 13 8 7 8 10 12 11 13 16 15 16 14 9 12 13 15 18 19 16 12 10 8 8 8 8 11 8 7 8 7 9 12 12 13 15 14 15 14 11 13 14 14 17 18 23 26 23 23 23 22 22 22 21 20 20 20
7 7 6 5 6 6 6 7 8 8 9 10 10 10 9 10 10 10 10 9 10 11 11 10 6 5 5 4 10 9 10 10 10 7 5 5 6 8 9 12 16 16 17 16 11 12 17 20 23 23 17 12 10 8 9 10 11 12 11 9 9 8 8 12 13 12 13 13 16 15 11 14 15 16 19 19 22 26 24 23 23 22 22 21 20 20 19 19
7 7 6 5 6 6 7 7 8 9 9 10 10 10 10 9 9 9 9 9 11 13 12 12 8 7 10 3 10 10 3 2 6 7 3 2 1 5 9 10 14 15 16 17 15 16 21 23 23 20 15 10 12 11 10 11 14 15 14 11 9 9 10 12 10 12 14 13 16 16 12 15 16 17 20 20 23 26 24 24 23 22 22 21 20 20 18 18
7 6 6 5 5 6 7 7 8 9 10 10 9 9 9 9 10 9 9 9 12 16 14 14 14 7 7 5 6 7 3 4 4 5 4 6 4 6 9 8 12 14 14 16 17 16 15 18 19 18 17 15 14 13 12 14 15 15 15 11 7 8 10 10 9 13 16 15 17 17 14 16 17 19 21 20 23 26 24 24 24 23 22 21 20 20 19 18
7 6 5 5 6 6 6 7 9 10 10 9 8 8 9 10 12 11 11 9 10 17 14 9 14 10 7 7 3 1 2 3 3 3 4 5 7 8 7 5 9 11 12 13 14 12 10 12 14 15 17 18 16 15 15 15 12 10 12 9 6 7 8 9 8 10 14 17 19 20 17 16 19 21 22 21 22 25 25 25 24 23 22 21 20 20 19 19
6 5 5 5 5 5 6 8 9 10 9 9 7 7 10 12 13 11 10 11 10 13 11 7 10 10 7 5 1 4 3 3 4 4 3 3 4 6 6 5 7 8 9 10 11 11 10 11 14 16 19 19 19 18 17 17 13 8 7 8 9 9 6 6 6 6 11 15 18 20 19 19 22 23 23 23 22 23 24 25 25 24 23 21 21 21 20 20
6 5 5 5 5 5 7 8 9 10 8 9 7 4 9 13 12 10 9 12 13 9 7 6 4 5 6 3 2 2 3 0 3 3 4 5 5 4 6 6 7 8 10 10 11 11 11 13 16 19 20 18 19 19 18 19 15 10 9 9 9 11 7 5 5 6 10 14 17 19 19 20 23 25 25 24 23 23 25 27 26 25 25 23 21 22 21 21
5 5 5 5 5 5 7 8 9 10 8 8 6 5 10 10 5 4 6 9 12 8 4 5 3 1 2 3 3 6 2 2 3 4 5 5 6 6 8 7 8 10 12 12 11 10 13 16 17 18 19 18 18 19 19 18 15 12 12 9 5 8 7 5 5 4 8 13 15 17 17 18 23 26 27 26 25 24 24 27 27 25 26 24 23 22 21 21
5 5 4 5 6 6 7 8 9 9 8 8 5 9 11 6 2 5 4 4 5 6 3 7 7 1 4 5 6 5 5 2 3 5 4 5 6 7 8 6 10 11 11 14 13 11 15 17 17 16 17 19 18 18 19 18 16 15 12 11 10 9 9 7 7 6 7 10 10 14 18 18 19 24 27 28 28 26 24 26 27 26 25 25 25 23 22 23
5 5 4 6 6 6 7 8 9 9 10 8 6 9 8 2 7 9 8 6 1 7 4 6 6 0 5 9 3 5 7 4 4 5 5 6 7 7 8 7 10 12 11 15 15 14 15 16 16 15 16 19 20 18 17 17 17 15 13 14 11 11 13 10 10 10 8 7 6 10 15 15 17 22 27 29 28 27 24 24 27 27 26 26 26 23 22 24
5 5 5 6 5 6 7 7 9 8 8 11 10 8 3 3 8 7 7 6 3 5 4 2 4 1 5 4 1 4 5 4 4 7 5 6 8 7 7 9 10 13 14 15 17 16 13 13 15 17 16 18 20 18 16 17 18 14 17 18 7 5 11 12 12 9 8 7 6 9 11 12 18 21 26 30 28 26 25 22 25 27 26 27 26 24 23 24
5 5 5 6 5 6 6 6 8 8 9 11 11 8 2 3 4 3 5 3 4 1 4 3 2 3 6 2 2 3 3 5 2 6 5 5 8 6 6 9 11 13 14 14 16 16 15 12 13 18 18 18 20 19 17 18 17 14 17 21 13 3 5 11 11 9 9 8 7 11 10 7 15 19 22 28 28 28 27 24 24 25 26 26 26 25 24 24
4 5 5 5 5 5 5 7 11 14 14 7 4 5 2 6 5 4 4 5 2 2 1 4 4 3 5 3 1 3 3 4 2 3 5 8 10 8 7 8 12 14 10 9 12 15 17 14 11 15 16 17 20 18 16 15 16 17 14 13 14 9 4 7 7 8 7 6 7 10 10 6 12 19 21 27 29 27 27 27 27 26 26 27 26 25 24 24
4 5 5 5 6 5 5 7 11 14 12 3 6 1 4 6 4 5 5 6 2 6 1 3 5 3 2 0 2 2 2 2 5 3 3 7 9 7 6 6 12 13 7 8 13 14 18 17 12 14 16 17 20 18 14 13 16 18 8 3 8 11 9 8 6 7 6 6 7 10 13 10 12 17 20 24 28 28 28 29 29 28 29 28 25 25 24 24
3 4 5 4 5 5 5 5 5 6 6 7 7 1 4 3 2 4 6 4 5 7 2 1 4 4 0 1 2 3 1 2 4 3 1 6 9 8 6 6 9 11 8 9 12 12 16 18 13 13 15 13 16 17 16 15 18 18 9 6 9 14 10 14 10 10 9 9 12 14 16 11 6 10 16 21 25 28 31 32 30 29 30 29 26 25 26 25
3 4 5 4 5 5 6 7 4 4 9 9 4 3 4 2 3 3 6 4 4 4 2 3 4 3 1 2 1 2 5 4 2 4 3 6 10 10 8 7 7 13 14 13 14 11 9 12 11 11 14 13 13 15 17 18 19 17 12 10 12 12 8 13 13 11 10 10 12 13 14 10 3 8 16 20 23 28 32 32 31 29 28 28 27 26 26 26
3 3 4 5 5 6 8 9 8 7 9 7 4 3 2 2 5 7 6 1 3 3 3 3 2 2 1 5 4 1 4 6 3 5 5 4 8 9 8 7 6 13 14 13 19 16 7 7 10 11 13 14 15 14 16 19 18 16 11 9 11 11 8 9 12 13 10 9 13 12 12 11 5 11 18 15 13 21 28 30 31 31 30 29 29 28 27 27
3 3 4 5 4 6 8 9 9 8 8 6 3 2 2 4 7 10 4 4 1 3 4 1 1 3 4 5 6 1 3 6 1 2 5 2 5 8 8 8 5 9 10 9 16 17 10 11 11 11 12 12 15 16 15 18 18 16 12 9 10 12 12 10 12 13 10 7 11 11 12 13 8 11 16 12 7 13 21 25 28 32 34 32 31 31 28 28
3 3 4 4 4 5 7 10 11 9 8 6 3 4 5 7 9 10 3 6 1 3 6 3 4 5 4 4 6 2 5 4 4 5 5 2 5 8 8 9 6 7 10 11 13 14 13 13 10 9 12 13 14 17 17 17 20 18 13 12 11 10 11 10 9 10 10 10 9 9 10 11 7 6 9 9 9 11 16 19 22 27 34 35 33 31 29 29
2 2 3 4 5 7 9 11 12 11 8 6 3 6 6 9 8 6 5 7 2 4 6 3 5 5 3 3 3 2 3 1 1 6 7 2 4 7 8 7 6 7 8 10 12 16 15 15 13 11 14 16 16 17 19 19 20 19 15 14 12 9 7 7 7 7 9 12 11 10 9 6 5 4 4 8 9 9 11 15 17 20 27 32 33 31 30 30
2 2 3 4 5 8 11 12 13 11 7 2 2 6 8 10 6 6 7 8 7 4 2 2 6 4 1 4 3 3 3 2 4 6 6 4 4 5 6 7 8 9 7 9 12 12 13 14 17 16 14 17 19 19 18 17 19 18 17 17 16 14 10 6 6 6 7 10 11 12 8 3 4 3 3 6 7 8 11 13 15 17 21 26 31 32 31 31
1 2 3 5 5 9 12 13 13 9 5 4 5 8 11 9 6 9 8 6 8 8 3 3 5 7 4 2 5 2 2 3 7 6 2 4 4 3 4 4 6 6 5 7 10 10 12 13 14 15 12 14 19 20 15 12 17 18 17 21 21 17 14 12 11 10 11 10 7 9 6 4 5 6 6 8 11 12 13 12 14 17 19 22 28 32 32 33
0 1 3 4 6 9 12 13 12 7 5 5 7 11 10 6 6 10 8 5 8 9 5 4 5 7 4 2 4 2 2 4 6 4 1 2 2 2 2 2 2 3 2 4 7 8 12 12 6 12 12 14 17 19 15 11 11 12 17 23 22 17 15 15 13 14 14 9 7 8 9 12 8 7 9 11 14 14 13 12 14 16 19 21 25 30 33 34
1 1 5 6 4 6 11 13 10 4 3 5 9 11 8 4 3 7 7 6 7 6 6 9 7 5 4 2 3 1 3 4 4 2 1 2 3 1 2 3 3 5 4 4 6 7 9 11 2 9 11 14 13 14 17 17 13 10 13 17 18 18 17 16 12 10 10 6 8 11 11 17 11 8 12 14 15 15 13 13 15 16 18 19 20 25 30 33
1 1 5 3 2 5 9 11 10 4 2 8 13 12 7 5 5 6 6 6 7 5 6 9 7 4 5 4 2 2 2 0 1 2 1 1 3 3 5 3 1 5 4 3 5 5 6 8 6 8 12 13 12 11 16 20 21 18 13 8 12 17 16 16 12 7 8 6 6 10 9 12 8 8 15 18 15 14 13 13 14 16 17 17 17 20 24 30
4 5 3 4 4 3 8 10 10 6 3 9 14 7 3 3 5 5 6 6 6 5 5 7 4 3 4 5 1 2 3 1 2 1 2 1 0 2 6 4 2 5 3 4 8 7 5 7 7 9 13 11 12 14 16 18 22 22 17 11 12 16 14 16 14 10 9 6 5 8 6 6 6 9 15 16 14 14 15 14 14 17 17 15 17 19 21 26
9 7 4 11 10 4 8 11 6 6 8 12 13 5 2 3 4 4 5 5 5 4 5 7 4 2 4 4 3 3 4 4 2 0 2 1 1 3 4 3 5 8 6 6 9 8 6 7 7 8 10 10 12 15 16 16 19 21 19 14 14 14 12 12 15 16 14 8 6 5 1 4 6 14 15 13 14 17 17 16 15 17 18 16 17 20 22 24
9 4 7 12 10 5 9 8 2 8 13 15 11 5 4 4 4 5 4 4 5 4 5 7 4 4 5 3 3 3 2 3 1 2 1 1 3 4 1 1 6 8 7 7 7 5 4 4 7 8 10 11 10 8 12 16 17 19 20 16 12 12 13 10 10 15 16 12 10 7 1 4 6 14 16 15 17 18 16 14 14 15 17 16 17 19 21 23
11 3 6 10 9 5 7 8 9 9 10 8 1 3 3 4 5 6 4 4 4 1 3 5 2 3 5 3 3 4 4 4 3 3 2 1 2 2 3 1 5 6 8 9 7 7 7 6 8 10 12 16 14 5 7 15 17 18 20 19 15 14 16 15 11 10 12 13 15 15 6 6 8 11 16 16 16 16 13 11 12 15 17 17 17 17 19 20
9 1 7 10 13 9 8 12 12 8 7 4 1 2 2 3 5 4 3 4 3 2 5 6 2 3 5 3 4 5 4 3 3 3 4 3 3 2 1 3 4 6 8 7 7 9 5 5 9 12 13 16 16 11 11 16 18 21 21 21 21 19 17 17 13 12 15 14 13 13 6 7 8 9 12 13 14 13 12 11 11 13 17 17 18 18 17 18
6 5 7 10 12 10 13 14 10 9 10 7 5 5 4 4 5 3 4 3 2 4 6 5 2 1 2 2 3 4 3 3 4 5 5 3 2 3 3 4 5 6 7 5 5 8 5 4 7 10 10 9 9 11 13 14 13 17 18 17 20 20 18 17 15 14 16 18 14 9 0 7 5 7 8 7 9 10 12 14 13 13 16 18 18 17 16 17
6 4 6 9 8 11 14 12 10 13 11 6 7 8 8 8 7 6 6 5 4 5 4 4 3 2 4 4 4 4 3 3 4 3 3 3 2 2 3 4 4 5 6 7 8 7 6 7 7 7 7 4 3 8 11 10 8 9 15 17 19 20 17 16 19 14 11 17 17 7 6 7 3 4 5 5 5 7 13 17 16 17 18 18 18 17 16 17
6 4 6 7 6 9 13 11 10 12 8 3 6 7 7 7 4 3 6 6 6 5 3 4 3 3 4 4 4 5 3 3 2 2 3 3 2 1 2 5 5 6 10 11 9 6 7 8 8 9 9 6 5 10 12 11 10 10 13 13 11 11 9 9 11 8 4 9 5 11 12 5 5 3 2 4 5 4 8 14 15 17 18 18 19 18 16 16
9 6 6 7 7 8 12 13 11 9 5 2 5 6 6 5 2 3 3 3 5 6 5 5 3 3 4 4 4 3 2 2 3 2 4 6 4 3 5 5 5 7 11 11 7 6 8 10 10 10 11 11 9 10 10 11 13 12 12 13 12 8 9 10 10 8 5 8 1 13 11 3 5 3 0 1 1 2 2 7 12 14 15 16 17 17 16 15
12 7 8 8 8 8 9 11 12 12 8 4 3 5 6 7 5 5 4 2 3 4 5 4 4 4 5 5 3 2 3 4 3 2 5 6 5 6 6 4 2 5 9 7 5 6 8 10 10 10 11 11 11 11 9 10 13 12 11 10 9 9 9 10 12 11 9 12 10 7 8 3 2 0 2 3 5 5 4 3 5 8 12 15 17 18 17 16
10 12 12 9 10 11 8 7 9 11 11 8 5 4 6 7 6 6 5 3 2 2 3 3 4 5 5 5 3 3 5 5 3 3 4 4 4 6 6 4 2 4 7 5 5 6 8 10 11 11 11 11 11 11 9 10 12 11 9 8 7 8 9 9 10 11 12 15 16 13 9 4 2 3 4 6 8 6 5 4 4 4 5 11 19 19 16 17
11 16 16 12 12 11 9 7 9 9 8 8 9 7 6 7 6 5 6 6 3 3 5 6 5 5 4 3 3 4 3 1 2 3 2 2 5 6 4 4 4 5 7 5 5 5 6 7 8 9 11 11 10 11 11 10 9 10 10 9 9 9 9 7 8 11 12 13 14 13 10 7 5 5 6 8 9 7 5 4 5 4 3 6 15 17 16 16
19 22 17 13 13 9 8 8 9 10 10 8 9 9 8 8 6 3 4 6 4 4 4 5 5 5 4 3 4 5 3 1 2 3 3 4 5 4 3 4 5 6 7 6 5 5 6 8 7 8 10 11 9 10 12 10 8 11 11 10 10 11 10 7 5 7 8 10 12 13 9 5 4 4 6 8 9 9 7 6 6 6 4 5 8 12 14 14
21 23 17 13 13 9 9 10 9 10 12 9 7 8 8 7 6 4 5 5 6 7 5 3 2 5 5 5 4 4 2 2 4 5 5 7 6 6 7 7 7 7 7 6 6 6 7 8 8 7 9 10 9 8 9 9 10 11 8 7 10 10 7 5 4 5 5 7 10 10 7 4 3 3 5 8 10 10 9 8 7 7 5 6 6 7 9 12
Wind_Direction
12 18 23 26 25 22 14 5 354 339 330 320 313 310 304 299 297 294 290 282 273 262 255 252 250 250 248 246 246 244 242 240 239 238 236 238 238 233 226 223 222 221 217 207 201 196 187 166 131 89 80 60 351 315 294 274 277 284 294 308 332 327 319 343 174 194 195 180 170 167 163 164 160 151 152 144 141 145 133 128 128 128 140 156 162 155 153 155
4 10 15 18 19 18 13 11 4 353 343 328 320 312 306 303 298 296 294 290 284 275 265 257 252 250 249 248 246 245 245 243 243 239 236 237 238 236 229 223 222 221 218 211 201 200 192 160 101 64 60 16 292 279 285 288 292 290 300 314 320 312 309 299 251 220 201 188 174 169 166 162 158 151 151 145 143 143 131 128 129 135 155 168 160 153 154 156
358 1 4 7 9 9 6 4 1 358 353 342 334 319 311 305 299 296 291 289 285 281 276 268 259 252 249 248 248 247 245 248 249 241 235 236 236 236 233 225 222 220 217 212 202 200 195 168 128 323 301 291 267 268 280 291 306 302 302 309 312 315 309 296 257 213 196 187 174 165 162 156 156 152 149 145 142 142 135 135 143 154 165 163 154 154 156 156
359 354 354 359 358 360 358 357 355 352 350 347 344 334 324 311 303 296 287 286 284 283 281 275 269 259 251 248 249 248 246 256 256 241 232 237 235 234 234 227 222 220 215 214 206 199 201 183 172 247 251 261 264 264 270 285 303 300 303 316 321 318 304 291 224 192 184 178 167 156 152 152 153 150 148 150 145 139 136 144 157 166 162 153 152 154 155 157
360 351 351 352 349 353 350 351 350 347 347 344 342 338 334 324 312 299 290 287 281 282 281 278 275 265 256 249 245 248 246 253 255 242 231 240 236 232 233 228 222 219 214 212 209 200 205 192 170 236 248 252 261 263 266 279 295 295 304 322 332 331 306 269 193 175 167 161 156 150 147 148 151 151 151 151 150 145 142 152 165 166 156 150 150 152 155 158
4 356 352 346 344 346 344 347 345 345 344 341 341 337 335 331 324 314 300 290 283 280 276 274 273 268 263 252 243 245 230 217 254 245 233 240 237 233 231 229 223 220 215 210 210 202 203 197 177 228 250 261 265 263 270 281 290 298 311 324 345 4 34 148 162 156 152 151 149 144 140 146 150 150 150 150 157 154 146 151 162 162 156 150 148 152 156 157
6 1 355 347 344 345 345 346 343 346 344 342 342 336 335 332 329 326 314 302 291 282 275 273 270 266 262 253 243 239 226 241 257 243 235 240 236 235 230 229 225 219 216 208 208 201 201 203 187 222 246 260 269 269 273 278 280 290 305 327 23 71 97 123 141 146 149 152 150 143 141 150 153 150 150 153 155 152 147 148 159 163 157 152 149 153 158 160
5 3 359 351 347 348 347 346 346 347 344 344 341 336 337 332 332 332 327 322 308 295 286 276 270 267 260 253 241 232 222 251 250 234 234 242 234 234 230 228 224 220 215 205 205 199 197 206 194 220 243 259 281 279 271 273 281 279 291 326 87 112 115 126 137 144 149 150 149 146 148 150 150 153 154 155 150 148 148 147 158 162 155 153 151 155 161 159
5 3 359 354 351 351 349 350 349 347 346 344 339 336 335 334 336 335 334 333 323 313 297 282 279 268 255 249 218 197 222 243 248 237 231 241 234 232 229 225 222 219 212 203 204 196 191 204 202 222 253 270 285 283 269 269 276 263 277 306 141 130 126 133 137 143 145 147 150 148 152 148 145 152 151 153 150 148 148 148 157 157 154 154 152 158 158 154
1 1 359 355 353 352 350 351 349 347 345 340 337 336 335 336 337 338 342 340 335 330 311 296 284 268 262 244 179 161 253 247 255 247 232 238 237 233 228 222 219 215 209 203 201 196 187 194 221 245 267 270 273 282 252 236 285 268 277 292 150 131 127 135 140 149 148 152 155 153 155 147 146 152 151 154 148 148 149 152 157 154 155 154 154 160 153 153
358 359 358 355 354 355 352 351 349 346 342 340 339 337 336 338 340 342 346 348 349 344 330 315 294 277 269 224 166 205 261 244 254 252 239 239 234 235 229 220 218 211 206 202 199 198 186 183 228 244 254 263 265 275 244 230 291 258 254 155 135 126 129 136 147 157 154 161 161 156 156 147 150 156 157 157 147 147 151 154 156 155 158 154 159 163 153 159
357 359 360 359 358 355 352 351 349 346 346 345 343 341 342 342 345 346 349 357 356 351 345 331 310 287 269 197 180 237 249 241 256 260 249 241 232 233 229 218 215 210 202 195 205 208 191 189 228 229 229 259 266 263 243 242 242 239 248 161 123 125 146 147 153 158 156 166 164 159 156 149 158 159 163 162 148 148 154 157 156 158 160 157 167 166 155 168
358 359 3 3 2 358 355 354 350 350 350 350 348 345 346 346 349 349 354 2 357 356 353 341 328 298 227 152 216 240 245 251 263 271 254 240 232 230 228 217 210 209 197 178 217 229 203 203 223 226 231 251 263 268 243 211 207 243 262 212 141 137 165 164 161 164 161 167 165 162 158 158 171 166 169 165 149 151 158 161 159 161 162 161 173 166 161 177
358 360 6 8 8 2 358 356 352 353 353 354 352 349 350 351 352 354 1 7 2 360 354 348 347 320 215 210 258 256 253 259 262 274 259 236 235 231 227 218 207 205 198 182 202 225 217 217 215 214 215 217 235 268 259 220 212 236 235 203 183 172 177 176 179 177 167 168 169 165 161 172 178 170 173 169 154 153 161 164 161 164 164 167 176 167 169 180
359 2 10 15 14 8 3 359 355 356 357 357 356 354 356 355 356 1 10 16 13 8 5 8 11 41 55 289 297 297 262 265 269 262 244 225 240 234 225 222 212 208 207 196 195 214 217 216 211 207 208 216 225 248 258 235 225 222 207 195 198 195 177 179 197 197 182 181 177 169 167 180 179 173 175 174 159 154 164 168 164 169 167 172 174 165 176 179
1 2 14 23 20 14 5 360 358 359 2 2 360 0 3 6 10 14 26 34 30 26 30 36 41 77 69 329 305 340 329 255 258 242 197 165 270 256 229 217 212 212 214 208 208 220 219 215 211 207 212 230 236 239 247 240 228 219 218 214 197 190 179 183 211 212 198 197 191 182 181 183 179 177 176 176 164 156 168 171 167 173 169 174 172 165 182 178
1 5 19 26 26 20 6 1 1 3 8 9 7 13 19 25 27 30 41 45 43 38 42 51 43 43 49 5 327 4 55 167 229 234 176 158 169 238 231 210 207 209 213 218 221 228 229 222 215 211 213 220 231 234 238 244 232 214 219 225 207 197 196 197 208 204 201 205 202 196 193 190 184 181 178 180 170 159 170 173 171 175 170 176 171 167 185 175
360 12 21 29 36 20 6 4 3 8 13 14 20 30 34 40 38 37 39 37 42 37 30 36 29 20 32 25 4 118 185 212 210 214 206 183 187 207 198 193 212 208 210 224 230 229 229 226 218 218 220 220 225 231 231 236 241 224 212 216 224 211 204 211 209 206 208 205 201 197 195 197 192 186 180 182 176 165 172 175 174 175 173 178 170 172 188 174
4 19 25 38 41 19 9 9 8 12 12 20 35 48 44 40 31 20 21 29 33 29 13 356 17 18 14 14 205 196 237 245 186 186 205 191 202 191 164 188 212 203 206 223 231 220 213 219 217 220 223 220 221 229 233 236 261 284 233 225 235 217 205 224 226 228 215 202 202 201 197 195 192 188 183 182 182 174 175 178 177 176 177 179 171 177 190 174
7 22 31 43 40 22 17 13 15 15 15 28 27 45 38 23 16 360 354 23 29 20 358 326 335 356 355 50 120 258 276 55 136 187 223 190 179 179 186 203 203 202 206 213 223 213 209 218 218 219 219 219 222 228 236 243 261 288 267 247 218 205 224 235 219 231 220 206 207 205 199 197 195 192 185 183 185 183 180 179 180 180 178 178 175 182 190 176
10 28 35 43 38 29 24 21 22 19 25 32 23 60 41 7 2 6 349 17 18 7 360 349 359 315 258 204 270 300 294 64 139 208 239 188 164 187 202 201 199 212 212 208 216 209 212 222 223 222 219 222 227 229 237 244 251 262 269 270 220 200 219 215 211 226 207 205 212 208 199 199 198 195 188 185 188 189 186 182 181 183 181 178 178 185 188 176
15 32 36 41 36 33 33 31 31 32 40 34 29 52 32 348 143 106 82 81 358 351 3 356 12 20 299 314 285 233 185 218 203 209 234 179 167 195 208 217 211 217 217 210 214 208 214 227 226 224 223 226 230 231 236 240 247 253 256 264 256 213 176 162 183 179 175 198 221 215 204 202 201 197 193 190 191 191 192 188 181 182 186 181 178 187 190 178
21 35 39 38 36 40 40 40 43 48 48 34 33 34 2 305 130 124 115 129 281 2 2 331 4 347 326 349 320 179 177 223 211 211 230 181 180 203 214 231 220 220 218 210 215 213 216 228 227 225 224 226 230 232 236 237 241 246 244 253 253 206 188 169 167 176 177 184 211 207 201 208 208 204 201 198 196 194 195 192 181 181 189 186 179 186 192 184
25 32 39 34 36 46 44 56 59 69 70 44 37 35 350 166 126 131 106 123 205 353 1 357 43 21 332 343 181 134 167 246 231 212 223 172 180 210 224 231 226 225 222 213 218 224 228 229 222 223 225 226 230 231 232 233 235 239 246 253 257 177 190 171 159 173 169 166 187 179 181 209 211 205 204 202 201 199 201 198 187 185 190 189 182 185 192 189
24 27 41 31 36 50 51 77 77 77 67 36 18 8 360 111 110 140 85 100 189 340 7 73 74 324 358 38 144 77 216 265 264 207 232 189 189 225 236 231 225 224 227 218 217 229 238 235 220 218 222 226 227 230 226 225 232 234 239 250 261 267 146 143 155 163 154 172 197 179 175 221 220 211 208 204 202 200 203 206 201 193 190 191 187 187 191 192
21 23 36 29 36 51 55 87 93 69 45 14 321 331 10 84 80 89 31 302 212 119 56 67 53 346 26 72 149 1 270 229 178 221 252 218 215 240 237 227 227 228 234 222 221 234 236 238 230 215 219 225 224 230 227 218 229 232 230 243 254 250 166 134 165 172 163 197 226 210 196 202 214 213 209 207 204 199 201 206 205 198 193 193 190 190 191 192
18 24 34 31 39 51 60 92 111 80 48 294 243 335 81 94 73 49 356 283 119 79 59 57 18 341 11 315 240 287 335 169 204 246 270 223 214 221 225 231 234 233 227 223 230 232 230 235 227 214 230 230 218 224 220 208 221 230 234 253 269 265 224 198 215 215 214 216 223 225 212 203 208 212 210 207 206 204 204 205 203 201 201 199 192 190 192 192
14 23 31 29 38 58 72 89 131 107 107 204 227 140 105 93 29 19 333 300 76 62 56 58 338 338 62 274 277 268 309 109 223 236 264 239 209 200 247 256 236 227 222 245 239 210 219 233 211 206 236 227 208 218 214 211 225 234 263 280 290 305 253 215 231 241 237 221 202 200 212 224 221 213 210 201 203 209 208 207 205 204 206 205 197 192 193 194
15 20 29 33 42 65 86 91 98 116 134 162 184 113 103 44 13 334 290 305 45 63 59 9 351 42 87 255 281 276 228 181 306 292 246 253 222 214 255 262 251 241 227 237 242 218 218 231 204 202 230 223 211 218 212 218 232 238 263 266 266 297 264 220 237 255 261 245 223 208 212 227 198 192 203 195 200 211 209 208 210 208 207 208 203 197 194 195
9 16 30 36 48 79 98 101 102 119 126 129 136 123 106 31 356 296 267 330 41 46 28 355 19 62 301 246 194 95 226 211 321 302 222 251 235 221 242 243 268 263 234 224 243 257 264 216 209 214 224 226 224 225 217 220 229 234 251 266 261 268 263 248 255 269 284 256 238 235 222 228 208 188 205 209 214 216 209 206 208 210 210 210 207 201 196 195
3 17 32 39 61 99 113 113 113 126 126 126 145 141 313 325 299 274 301 40 336 343 348 293 16 318 298 254 213 81 311 236 252 240 205 230 222 213 233 230 252 272 252 239 244 253 244 202 202 217 224 226 226 228 222 219 224 228 236 253 256 248 241 244 243 249 268 255 241 244 235 240 235 197 208 224 227 214 210 206 204 207 210 211 209 205 202 198
350 16 29 44 74 106 122 120 120 130 131 141 136 56 348 309 278 255 344 29 276 343 3 38 31 343 315 264 230 302 314 232 182 206 208 236 219 208 222 220 231 257 254 253 231 218 225 219 206 220 226 221 224 223 212 215 224 220 223 241 245 240 230 229 230 233 245 246 239 245 245 244 241 215 207 210 209 208 211 210 207 208 209 210 209 209 210 203
343 22 31 53 88 115 125 122 125 134 132 136 112 35 343 305 297 284 348 24 14 340 348 349 354 350 337 298 241 298 302 175 214 233 203 236 248 222 232 228 242 273 277 269 234 202 210 224 220 228 227 217 225 225 208 209 215 207 211 224 228 240 233 219 225 229 244 249 235 228 241 227 197 217 203 188 201 213 212 209 208 210 211 212 209 206 209 206
335 8 40 65 94 124 131 130 129 132 124 110 345 336 301 286 310 334 350 36 40 337 286 314 315 293 289 340 344 284 245 106 335 273 213 234 240 213 248 242 234 265 281 270 261 235 224 225 214 215 220 211 215 227 222 211 206 206 218 225 227 238 243 243 235 221 240 251 228 210 218 204 167 184 188 166 174 203 214 209 203 204 208 211 209 205 205 205
334 22 50 73 109 130 132 135 132 121 87 41 333 300 285 287 344 7 2 23 8 335 338 36 313 268 231 356 360 317 254 302 309 298 246 236 222 206 267 249 227 260 247 250 289 291 271 254 212 198 211 205 207 227 239 223 209 206 212 224 231 232 241 264 274 274 283 284 244 203 164 128 156 151 157 166 166 184 202 207 204 199 199 204 207 207 206 206
343 67 61 85 122 135 137 141 135 108 57 16 312 291 288 295 343 2 360 342 339 342 348 358 318 282 257 315 347 25 53 328 310 315 300 242 216 186 262 261 278 311 259 273 305 288 289 296 211 185 206 201 205 226 228 222 222 200 196 215 228 232 245 261 267 274 285 299 269 225 140 129 149 146 160 175 175 184 193 196 197 193 192 196 201 205 205 207
235 133 85 82 101 139 145 150 147 121 22 327 296 296 318 345 330 334 340 325 326 331 310 318 325 290 281 297 282 332 39 360 341 360 173 226 237 216 314 291 291 306 284 302 306 269 297 316 214 185 211 198 196 221 221 225 242 231 208 210 215 224 243 259 266 261 256 259 253 233 160 146 162 162 164 173 180 190 190 185 189 188 188 192 196 202 204 206
279 21 69 64 266 187 160 156 162 171 313 292 281 277 286 322 347 343 337 317 309 310 299 320 334 287 306 346 256 272 3 55 329 325 198 177 237 266 335 334 298 322 296 268 294 275 283 291 242 210 221 203 194 221 229 227 234 243 250 243 215 213 225 243 258 265 251 252 249 231 181 152 163 174 175 177 179 189 188 185 193 193 189 191 196 202 207 208
84 72 120 221 262 187 160 159 171 192 264 278 283 281 221 289 332 339 333 321 306 310 311 322 328 269 307 353 306 284 331 54 97 293 251 122 135 297 338 336 330 344 328 262 287 293 266 258 249 229 228 216 203 219 228 220 221 235 253 263 236 219 213 219 227 244 257 268 265 239 199 123 125 164 182 184 178 189 201 198 198 198 196 196 200 205 210 211
90 69 208 240 292 323 154 152 169 226 249 261 282 321 37 324 323 318 318 323 303 288 312 330 336 306 306 319 322 326 321 334 49 151 247 204 259 316 332 327 332 340 335 293 285 286 258 241 258 260 245 228 207 213 226 219 210 219 230 239 234 220 215 220 220 227 241 265 292 267 163 84 131 158 176 192 184 191 209 207 198 197 196 195 200 208 212 213
109 76 232 235 286 306 157 157 240 257 259 267 267 275 303 299 316 330 312 310 314 286 305 321 304 306 314 291 320 341 289 299 248 220 328 218 248 321 352 284 325 333 329 308 288 284 288 295 310 295 264 252 239 218 231 233 218 213 218 228 237 221 211 228 228 217 225 244 266 275 71 97 146 162 174 194 192 191 202 203 197 195 193 195 199 207 215 217
109 91 225 219 263 269 178 218 264 263 277 300 257 204 281 270 275 315 294 268 313 290 280 305 279 321 331 302 313 309 266 272 243 231 332 249 231 1 43 345 318 316 313 311 324 331 306 302 306 284 272 281 284 265 235 240 228 219 218 219 232 233 220 228 236 219 226 235 243 261 264 125 145 172 177 188 193 191 193 193 194 197 201 203 199 203 215 220
111 250 249 256 273 254 220 248 255 249 267 303 342 257 292 273 263 309 315 272 291 284 283 302 303 319 321 305 311 306 284 285 259 274 314 289 222 216 336 340 303 303 314 303 331 349 317 281 289 277 281 291 281 263 259 255 231 221 221 217 224 240 242 238 235 235 244 235 224 247 252 126 145 173 169 182 192 182 179 181 182 193 202 203 200 203 211 214
149 205 238 283 285 225 225 258 260 265 272 254 254 266 266 269 257 284 327 314 305 316 316 327 337 283 294 303 302 300 295 275 262 284 294 259 216 235 276 303 281 310 331 272 289 339 337 317 306 285 288 295 274 261 264 263 240 223 226 222 222 234 243 243 242 248 255 253 259 278 196 116 150 180 161 177 188 160 155 169 182 199 202 202 204 204 204 206
128 164 220 272 272 207 218 250 259 279 291 250 234 251 251 250 240 256 280 272 284 313 321 325 313 278 298 304 282 279 294 282 273 293 278 244 257 272 266 282 282 309 309 262 269 305 307 306 302 282 290 297 273 280 282 292 293 240 228 229 225 224 231 241 243 245 260 263 273 324 86 126 144 180 160 148 151 129 133 153 182 205 198 193 201 201 198 203
150 203 235 239 227 212 229 244 257 278 296 246 232 237 234 229 208 265 271 246 263 284 280 292 285 269 298 298 271 275 283 289 293 304 309 307 306 286 297 300 283 275 285 285 283 283 283 288 277 268 277 270 265 287 292 291 278 246 240 253 254 241 258 288 255 233 322 294 277 65 76 127 132 132 158 128 132 129 129 143 167 194 195 191 195 195 193 198
190 231 272 250 221 224 239 241 248 269 288 262 228 202 208 236 239 273 269 246 269 268 258 280 279 268 294 302 297 289 276 321 342 325 327 346 357 342 334 322 284 280 297 302 293 272 271 276 273 265 263 259 260 269 272 266 261 265 284 307 330 316 293 303 270 237 317 312 337 66 54 89 114 97 8 36 259 274 214 152 154 178 198 201 197 192 191 194
209 249 291 281 240 217 229 237 238 244 242 235 237 216 229 254 252 238 240 279 293 260 242 261 268 266 284 299 310 300 277 293 317 323 317 331 340 333 330 317 281 316 319 303 276 273 272 273 277 274 266 258 254 253 252 251 256 272 289 297 321 323 298 288 272 259 280 280 274 347 5 14 83 150 244 268 277 281 272 224 171 182 199 202 199 194 189 190
221 257 263 258 238 230 245 249 235 240 238 224 241 259 240 244 245 231 233 260 287 251 238 266 280 273 284 300 296 299 306 283 251 277 310 320 319 313 319 316 286 327 332 308 286 285 274 272 273 278 284 271 254 253 249 238 245 263 282 280 284 305 309 298 279 272 277 273 272 291 305 290 258 248 251 265 267 268 268 245 213 214 214 194 188 186 185 188
243 252 244 227 219 238 267 251 226 247 250 226 239 253 238 242 255 242 229 238 266 283 256 260 269 266 285 310 276 282 331 354 233 284 294 300 303 294 313 341 308 303 319 315 307 294 278 283 281 279 286 275 257 254 242 229 240 256 270 283 281 283 289 292 290 286 284 282 279 279 276 266 255 259 273 274 268 267 265 231 208 225 263 200 178 176 183 189
236 231 234 228 215 234 270 244 228 242 238 228 240 239 226 233 246 240 213 220 253 293 277 273 267 244 255 284 275 278 304 270 275 298 271 270 296 290 294 325 307 300 313 315 310 296 283 289 288 279 278 271 260 254 241 234 246 249 252 268 280 279 268 260 288 301 301 304 292 275 269 269 256 262 272 268 261 252 231 217 214 211 235 242 197 180 183 186
231 217 219 223 217 235 256 236 229 231 231 241 241 216 217 230 232 236 238 243 263 257 252 303 286 238 259 280 259 244 237 241 274 290 277 270 277 277 278 286 287 286 295 301 299 291 288 291 288 283 281 274 266 257 245 238 245 250 251 267 280 284 271 257 279 291 308 331 314 285 272 265 259 266 259 251 249 240 220 211 213 212 231 264 243 199 192 198
Height
3147 3147 3147 3147 3147 3146 3146 3145 3145 3144 3144 3143 3143 3142 3142 3142 3141 3141 3141 3141 3141 3141 3141 3141 3142 3142 3143 3143 3144 3144 3145 3145 3145 3146 3147 3147 3148 3149 3150 3152 3153 3154 3155 3156 3157 3157 3158 3158 3159 3159 3160 3160 3162 3163 3163 3164 3164 3164 3162 3161 3161 3160 3160 3161 3162 3162 3162 3163 3164 3164 3166 3167 3168 3169 3170 3171 3172 3173 3174 3176 3177 3179 3181 3181 3181 3182 3184 3185
3147 3147 3147 3147 3147 3146 3146 3145 3145 3144 3144 3143 3143 3142 3142 3141 3141 3141 3141 3141 3141 3141 3141 3140 3141 3141 3142 3142 3143 3143 3144 3144 3144 3145 3146 3147 3147 3148 3149 3151 3152 3153 3155 3156 3157 3157 3158 3158 3159 3160 3160 3162 3163 3164 3164 3164 3164 3163 3162 3162 3161 3160 3159 3160 3160 3161 3161 3162 3163 3165 3166 3168 3169 3169 3170 3171 3172 3174 3175 3177 3179 3180 3180 3180 3181 3183 3185 3186
3147 3147 3147 3147 3146 3146 3146 3145 3145 3144 3144 3143 3143 3142 3141 3141 3141 3140 3140 3140 3140 3140 3140 3140 3140 3140 3141 3141 3141 3142 3142 3143 3143 3143 3145 3146 3146 3147 3148 3150 3151 3152 3154 3155 3156 3157 3157 3158 3159 3161 3162 3163 3165 3165 3165 3164 3163 3163 3162 3162 3161 3159 3158 3158 3158 3158 3159 3161 3163 3165 3166 3168 3169 3170 3171 3172 3173 3174 3176 3178 3179 3179 3178 3179 3182 3183 3185 3187
3148 3147 3147 3147 3146 3146 3146 3145 3145 3144 3144 3143 3142 3142 3141 3141 3140 3140 3139 3139 3139 3139 3139 3139 3139 3139 3140 3140 3141 3141 3142 3143 3141 3141 3144 3145 3145 3146 3147 3149 3150 3151 3152 3154 3155 3156 3157 3157 3159 3161 3163 3164 3165 3166 3166 3165 3164 3163 3162 3161 3160 3158 3157 3156 3156 3156 3158 3161 3163 3165 3166 3168 3169 3170 3171 3172 3173 3175 3177 3179 3179 3178 3178 3180 3181 3183 3185 3187
3148 3147 3147 3147 3147 3146 3146 3145 3145 3144 3144 3143 3142 3142 3141 3140 3140 3139 3139 3139 3138 3138 3138 3138 3138 3138 3139 3139 3140 3140 3142 3143 3138 3140 3144 3143 3144 3146 3146 3148 3149 3150 3151 3153 3154 3155 3157 3157 3159 3161 3162 3163 3165 3166 3166 3165 3164 3163 3162 3160 3159 3157 3155 3155 3154 3154 3157 3161 3164 3166 3167 3168 3169 3170 3171 3173 3174 3175 3178 3180 3179 3179 3180 3181 3182 3184 3186 3188
3148 3147 3147 3147 3147 3146 3146 3145 3145 3144 3144 3143 3142 3141 3141 3140 3140 3139 3139 3138 3138 3138 3137 3137 3137 3138 3138 3138 3139 3139 3141 3141 3136 3139 3143 3142 3143 3145 3146 3147 3148 3149 3150 3152 3154 3155 3156 3157 3159 3161 3163 3164 3165 3166 3165 3165 3165 3163 3162 3161 3159 3156 3155 3154 3155 3156 3159 3162 3164 3166 3167 3169 3170 3171 3172 3174 3175 3176 3178 3180 3180 3180 3181 3182 3183 3184 3186 3188
3147 3147 3147 3147 3146 3146 3146 3145 3145 3144 3144 3143 3142 3141 3141 3140 3139 3139 3138 3138 3137 3137 3137 3137 3137 3137 3137 3137 3138 3139 3141 3139 3135 3139 3142 3141 3143 3144 3145 3146 3147 3148 3149 3151 3153 3154 3156 3157 3159 3161 3163 3164 3165 3166 3165 3165 3165 3163 3162 3160 3159 3158 3156 3156 3157 3158 3161 3163 3164 3166 3167 3169 3170 3171 3173 3174 3175 3176 3178 3180 3181 3181 3182 3183 3184 3185 3187 3189
3147 3147 3147 3146 3146 3146 3146 3145 3145 3144 3143 3143 3142 3141 3141 3140 3139 3139 3138 3138 3137 3137 3136 3136 3136 3136 3136 3137 3138 3138 3140 3137 3134 3138 3141 3141 3142 3143 3144 3145 3146 3148 3149 3150 3152 3154 3156 3157 3159 3161 3163 3165 3165 3165 3165 3165 3165 3164 3162 3161 3160 3160 3158 3158 3159 3161 3162 3164 3165 3166 3168 3169 3170 3171 3173 3174 3175 3176 3178 3180 3182 3182 3183 3184 3185 3186 3188 3189
3147 3147 3147 3146 3146 3146 3145 3145 3145 3144 3143 3143 3142 3141 3141 3140 3139 3139 3138 3137 3137 3136 3136 3136 3136 3136 3136 3137 3137 3139 3138 3135 3134 3138 3140 3140 3141 3142 3143 3144 3146 3147 3148 3150 3151 3153 3155 3157 3159 3161 3163 3164 3164 3165 3165 3165 3165 3164 3162 3161 3161 3162 3162 3161 3162 3163 3165 3166 3166 3167 3168 3169 3170 3172 3173 3175 3176 3177 3179 3181 3182 3183 3184 3185 3186 3187 3188 3190
3147 3147 3146 3146 3146 3145 3145 3145 3144 3144 3143 3143 3142 3141 3141 3140 3139 3139 3138 3137 3137 3136 3135 3135 3135 3135 3136 3136 3137 3138 3136 3135 3135 3136 3138 3139 3140 3141 3142 3143 3145 3146 3147 3149 3151 3152 3154 3157 3160 3162 3163 3163 3163 3165 3164 3164 3166 3164 3163 3162 3161 3164 3165 3165 3165 3165 3167 3168 3167 3168 3168 3170 3171 3172 3173 3175 3176 3178 3180 3182 3183 3184 3185 3186 3188 3188 3190 3192
3147 3146 3146 3146 3146 3145 3145 3145 3144 3144 3143 3142 3142 3141 3141 3140 3139 3139 3138 3138 3137 3136 3136 3135 3135 3135 3135 3136 3137 3136 3134 3135 3135 3135 3137 3139 3140 3141 3141 3143 3144 3146 3147 3148 3150 3152 3153 3156 3159 3161 3163 3163 3163 3164 3163 3164 3166 3163 3163 3164 3164 3166 3167 3167 3167 3167 3168 3168 3168 3169 3169 3170 3172 3173 3174 3175 3177 3179 3181 3182 3183 3185 3186 3187 3189 3189 3191 3193
3147 3146 3146 3146 3146 3145 3145 3145 3144 3144 3143 3142 3142 3141 3141 3140 3139 3139 3138 3138 3137 3136 3135 3135 3134 3135 3135 3136 3136 3133 3132 3135 3134 3135 3137 3138 3139 3140 3141 3142 3144 3145 3147 3148 3151 3152 3153 3155 3158 3159 3160 3162 3162 3164 3163 3164 3165 3162 3163 3166 3167 3168 3168 3168 3169 3168 3169 3169 3169 3170 3170 3171 3172 3173 3174 3176 3177 3180 3182 3183 3184 3186 3187 3188 3189 3190 3192 3193
3147 3146 3146 3146 3146 3145 3145 3144 3144 3143 3143 3142 3142 3141 3140 3140 3139 3139 3138 3138 3137 3136 3135 3135 3134 3134 3135 3136 3135 3132 3133 3135 3135 3135 3136 3137 3139 3139 3140 3142 3143 3145 3146 3148 3151 3152 3153 3154 3156 3157 3158 3160 3161 3163 3162 3163 3164 3162 3163 3166 3168 3170 3169 3169 3169 3169 3170 3170 3170 3170 3171 3171 3172 3173 3175 3176 3177 3180 3183 3184 3185 3186 3187 3189 3189 3190 3192 3193
3147 3146 3146 3146 3145 3145 3145 3144 3144 3143 3143 3142 3142 3141 3141 3140 3139 3139 3138 3138 3137 3136 3135 3135 3134 3134 3135 3135 3134 3133 3134 3135 3135 3136 3136 3137 3138 3139 3140 3141 3142 3144 3145 3147 3150 3152 3152 3153 3153 3154 3156 3157 3159 3161 3161 3163 3164 3163 3163 3165 3167 3169 3170 3170 3170 3171 3171 3170 3170 3171 3172 3172 3172 3174 3175 3176 3177 3180 3183 3184 3186 3187 3188 3189 3188 3190 3192 3193
3147 3147 3146 3146 3145 3145 3145 3144 3144 3143 3143 3142 3142 3141 3140 3140 3139 3139 3138 3138 3137 3136 3136 3135 3134 3135 3135 3135 3134 3134 3134 3134 3135 3136 3136 3137 3138 3139 3140 3141 3142 3143 3145 3146 3148 3150 3150 3150 3151 3153 3155 3157 3158 3160 3161 3162 3163 3163 3163 3165 3167 3168 3169 3170 3171 3173 3173 3172 3171 3171 3172 3172 3173 3174 3175 3176 3177 3180 3183 3184 3186 3187 3188 3188 3189 3190 3192 3193
3147 3147 3146 3146 3145 3145 3145 3144 3144 3143 3143 3142 3142 3141 3141 3140 3140 3139 3139 3138 3138 3137 3136 3135 3135 3135 3136 3136 3135 3134 3134 3135 3135 3135 3136 3138 3139 3139 3139 3140 3142 3143 3144 3145 3147 3148 3148 3149 3151 3153 3155 3158 3159 3160 3160 3160 3160 3161 3161 3162 3165 3166 3168 3169 3171 3173 3174 3173 3172 3171 3172 3172 3173 3174 3175 3176 3177 3180 3183 3184 3185 3187 3187 3188 3189 3191 3191 3192
3147 3147 3146 3146 3145 3145 3144 3144 3144 3143 3143 3143 3142 3141 3141 3140 3140 3140 3139 3139 3139 3138 3138 3137 3137 3136 3136 3136 3136 3136 3136 3136 3135 3136 3137 3138 3140 3140 3139 3140 3141 3142 3144 3145 3146 3147 3148 3149 3151 3153 3154 3156 3158 3159 3159 3157 3155 3156 3158 3159 3162 3164 3166 3168 3170 3173 3173 3172 3172 3171 3172 3172 3173 3173 3174 3176 3177 3179 3182 3183 3185 3186 3187 3188 3189 3191 3192 3192
3147 3147 3146 3146 3145 3145 3144 3144 3144 3143 3143 3143 3142 3142 3142 3141 3141 3141 3140 3140 3139 3139 3139 3139 3138 3137 3137 3138 3138 3138 3137 3137 3136 3137 3137 3138 3139 3139 3140 3141 3142 3143 3144 3145 3146 3147 3149 3150 3151 3153 3154 3155 3156 3157 3157 3154 3152 3153 3155 3158 3161 3163 3164 3166 3168 3170 3171 3171 3171 3171 3171 3171 3172 3173 3174 3175 3176 3178 3181 3183 3184 3185 3187 3188 3189 3191 3191 3192
3147 3147 3146 3146 3146 3145 3144 3144 3144 3144 3143 3143 3143 3142 3142 3142 3141 3141 3141 3141 3140 3139 3140 3140 3139 3140 3140 3139 3139 3138 3138 3137 3137 3137 3138 3138 3139 3139 3141 3142 3142 3143 3145 3146 3146 3147 3149 3150 3151 3152 3152 3153 3154 3155 3155 3153 3152 3152 3154 3156 3159 3161 3162 3163 3166 3167 3169 3170 3169 3170 3170 3171 3171 3172 3173 3174 3175 3177 3179 3182 3183 3185 3187 3188 3189 3191 3191 3193
3147 3147 3147 3146 3146 3145 3145 3145 3144 3144 3144 3143 3143 3142 3142 3142 3142 3142 3141 3141 3140 3140 3142 3141 3140 3142 3142 3140 3139 3138 3137 3136 3137 3138 3139 3139 3139 3141 3142 3142 3143 3144 3145 3147 3147 3148 3149 3150 3150 3150 3151 3153 3153 3154 3154 3154 3154 3153 3153 3154 3156 3158 3161 3162 3164 3165 3166 3167 3168 3168 3169 3170 3170 3171 3172 3173 3174 3176 3178 3180 3182 3184 3186 3187 3189 3190 3191 3192
3148 3147 3147 3146 3146 3145 3145 3145 3144 3144 3144 3143 3143 3142 3142 3144 3144 3143 3142 3141 3142 3142 3143 3142 3140 3141 3141 3140 3140 3139 3138 3137 3138 3140 3139 3139 3140 3142 3142 3143 3144 3145 3145 3147 3148 3148 3149 3149 3149 3150 3151 3152 3153 3154 3154 3154 3155 3154 3154 3154 3154 3156 3160 3162 3162 3164 3166 3166 3166 3167 3168 3169 3169 3169 3171 3171 3173 3175 3177 3179 3181 3183 3185 3187 3189 3190 3190 3192
3148 3147 3147 3146 3146 3146 3145 3145 3145 3145 3144 3144 3144 3143 3143 3144 3144 3143 3142 3143 3144 3143 3143 3142 3141 3141 3141 3140 3140 3139 3139 3140 3140 3140 3140 3139 3140 3142 3143 3144 3144 3145 3145 3146 3147 3148 3148 3148 3148 3150 3151 3152 3152 3153 3153 3154 3155 3155 3154 3155 3154 3154 3158 3161 3161 3162 3165 3167 3166 3166 3166 3167 3168 3169 3170 3171 3172 3174 3176 3178 3180 3183 3184 3186 3188 3190 3190 3192
3148 3148 3147 3147 3147 3146 3146 3146 3145 3145 3145 3145 3145 3144 3144 3145 3144 3143 3142 3143 3145 3144 3143 3143 3143 3143 3142 3140 3139 3138 3139 3142 3141 3141 3140 3140 3141 3142 3143 3144 3145 3145 3145 3146 3146 3146 3146 3146 3148 3149 3150 3151 3151 3152 3153 3154 3154 3154 3154 3154 3152 3151 3154 3159 3162 3162 3164 3166 3165 3165 3165 3166 3167 3168 3169 3171 3172 3174 3176 3177 3179 3182 3184 3185 3188 3189 3189 3191
3148 3148 3147 3147 3147 3147 3146 3146 3146 3146 3146 3146 3145 3145 3146 3145 3144 3144 3143 3142 3144 3145 3144 3143 3144 3144 3143 3141 3140 3139 3140 3142 3141 3141 3140 3140 3142 3144 3144 3144 3144 3144 3144 3145 3145 3145 3145 3145 3147 3148 3149 3150 3150 3151 3152 3153 3153 3154 3154 3151 3151 3151 3152 3155 3160 3162 3163 3164 3165 3166 3166 3166 3166 3167 3168 3170 3173 3176 3178 3178 3178 3180 3182 3184 3187 3188 3189 3190
3149 3148 3148 3148 3147 3147 3147 3146 3147 3146 3147 3147 3147 3147 3146 3146 3145 3145 3143 3143 3144 3144 3143 3142 3144 3143 3142 3141 3141 3141 3141 3142 3142 3141 3141 3141 3142 3144 3144 3143 3143 3143 3143 3143 3144 3145 3144 3145 3145 3146 3148 3149 3149 3150 3151 3151 3152 3153 3152 3150 3151 3153 3152 3152 3156 3160 3163 3164 3164 3165 3166 3166 3166 3167 3168 3169 3172 3176 3178 3178 3178 3180 3182 3183 3185 3187 3189 3190
3149 3149 3148 3148 3148 3147 3147 3147 3147 3147 3148 3151 3150 3149 3147 3146 3146 3146 3145 3144 3143 3143 3143 3143 3144 3143 3142 3142 3142 3143 3142 3142 3143 3142 3141 3142 3142 3142 3142 3143 3143 3141 3142 3143 3144 3144 3143 3143 3145 3145 3146 3148 3148 3149 3149 3151 3152 3151 3150 3150 3151 3152 3152 3153 3155 3157 3159 3161 3161 3162 3163 3165 3166 3167 3168 3169 3171 3173 3175 3176 3178 3179 3181 3182 3183 3186 3188 3190
3149 3149 3149 3148 3148 3148 3147 3147 3147 3147 3150 3153 3151 3149 3148 3148 3147 3147 3147 3144 3141 3143 3144 3144 3144 3143 3143 3143 3143 3143 3143 3142 3143 3142 3142 3142 3141 3142 3142 3142 3142 3141 3142 3143 3143 3143 3141 3142 3144 3145 3145 3145 3146 3148 3149 3151 3151 3149 3149 3149 3150 3150 3151 3153 3154 3154 3155 3157 3158 3159 3160 3162 3164 3165 3166 3167 3169 3171 3173 3175 3176 3177 3179 3180 3182 3184 3187 3189
3150 3149 3149 3149 3148 3148 3148 3148 3148 3147 3149 3151 3150 3149 3149 3148 3148 3148 3148 3144 3142 3144 3145 3144 3144 3143 3144 3144 3142 3143 3143 3143 3143 3142 3143 3143 3141 3142 3142 3142 3143 3142 3143 3142 3140 3141 3141 3141 3143 3145 3145 3144 3145 3147 3149 3151 3150 3149 3149 3150 3150 3148 3149 3151 3152 3152 3154 3154 3155 3156 3158 3159 3161 3162 3164 3165 3167 3169 3171 3172 3174 3175 3177 3178 3180 3183 3185 3187
3150 3149 3149 3149 3149 3148 3148 3148 3148 3148 3148 3149 3150 3149 3149 3149 3148 3149 3149 3147 3144 3144 3145 3144 3143 3143 3144 3144 3143 3144 3143 3143 3143 3142 3143 3143 3141 3141 3142 3142 3143 3142 3142 3142 3139 3139 3141 3141 3142 3145 3145 3145 3146 3147 3149 3151 3150 3150 3150 3151 3151 3149 3148 3150 3150 3150 3151 3152 3151 3153 3156 3157 3159 3161 3161 3162 3164 3165 3167 3169 3171 3173 3175 3177 3179 3181 3184 3186
3150 3150 3149 3149 3149 3149 3149 3149 3149 3150 3150 3150 3150 3149 3149 3149 3150 3150 3147 3145 3145 3145 3145 3145 3143 3144 3144 3143 3143 3143 3143 3143 3143 3143 3143 3143 3143 3142 3142 3142 3142 3140 3140 3141 3138 3138 3139 3141 3142 3145 3145 3146 3147 3147 3149 3150 3150 3151 3151 3151 3152 3150 3150 3150 3151 3151 3151 3150 3149 3150 3153 3154 3156 3159 3158 3158 3159 3160 3162 3165 3167 3170 3173 3175 3178 3179 3182 3185
3150 3150 3150 3149 3149 3149 3149 3149 3150 3151 3151 3151 3150 3150 3150 3150 3151 3150 3145 3142 3144 3144 3144 3144 3144 3144 3143 3142 3142 3142 3143 3142 3142 3143 3143 3143 3143 3143 3143 3143 3142 3140 3139 3140 3139 3139 3140 3140 3142 3144 3145 3146 3147 3147 3148 3149 3150 3150 3151 3152 3151 3150 3151 3151 3152 3153 3152 3148 3147 3149 3151 3152 3153 3155 3155 3155 3156 3157 3159 3161 3163 3166 3169 3172 3175 3177 3180 3183
3150 3150 3150 3150 3150 3150 3150 3149 3150 3151 3151 3151 3151 3151 3151 3151 3151 3148 3144 3142 3143 3144 3144 3144 3144 3144 3143 3142 3141 3141 3142 3142 3142 3142 3143 3143 3143 3143 3143 3143 3143 3142 3140 3139 3138 3139 3140 3139 3141 3143 3144 3145 3146 3146 3147 3148 3148 3149 3151 3153 3151 3149 3149 3150 3150 3151 3149 3146 3146 3148 3149 3149 3150 3152 3153 3154 3155 3155 3157 3159 3161 3163 3166 3169 3172 3176 3178 3181
3150 3150 3150 3150 3150 3150 3150 3150 3151 3151 3151 3152 3152 3152 3153 3153 3149 3145 3143 3143 3143 3144 3145 3145 3145 3144 3143 3142 3141 3142 3142 3142 3141 3142 3142 3143 3143 3143 3143 3143 3143 3142 3141 3139 3138 3138 3139 3139 3140 3143 3143 3143 3144 3143 3143 3145 3146 3148 3151 3152 3151 3149 3147 3147 3146 3147 3146 3143 3143 3146 3148 3148 3150 3151 3153 3154 3154 3154 3156 3158 3160 3162 3165 3167 3170 3174 3177 3180
3150 3151 3150 3150 3150 3151 3151 3151 3152 3152 3153 3153 3153 3153 3153 3152 3147 3144 3143 3143 3145 3145 3145 3145 3145 3145 3144 3143 3142 3142 3142 3142 3142 3142 3142 3143 3143 3143 3143 3143 3143 3143 3142 3141 3138 3136 3136 3135 3136 3139 3140 3141 3142 3141 3141 3143 3144 3147 3151 3152 3150 3147 3145 3143 3141 3141 3142 3140 3140 3143 3146 3148 3149 3151 3152 3153 3154 3155 3157 3158 3159 3161 3164 3167 3170 3173 3175 3178
3151 3151 3151 3151 3151 3151 3152 3152 3152 3153 3154 3153 3153 3154 3152 3149 3146 3146 3145 3145 3146 3146 3144 3145 3145 3144 3143 3143 3143 3142 3142 3143 3143 3142 3143 3143 3143 3143 3143 3142 3143 3143 3142 3142 3140 3138 3135 3132 3132 3136 3138 3140 3141 3140 3140 3142 3142 3145 3150 3151 3148 3146 3145 3143 3140 3140 3140 3138 3138 3141 3145 3148 3149 3150 3151 3153 3155 3156 3157 3158 3159 3160 3162 3165 3169 3171 3173 3176
3151 3151 3151 3151 3151 3152 3152 3153 3153 3154 3154 3154 3154 3153 3151 3148 3148 3149 3148 3148 3148 3147 3145 3145 3145 3144 3142 3143 3144 3143 3143 3144 3144 3143 3144 3144 3144 3144 3144 3143 3143 3143 3143 3142 3142 3140 3138 3134 3133 3135 3137 3139 3140 3140 3141 3142 3140 3142 3146 3147 3147 3147 3147 3144 3142 3141 3141 3140 3139 3139 3144 3147 3148 3150 3151 3152 3155 3156 3157 3158 3158 3159 3161 3163 3166 3168 3171 3174
3151 3151 3150 3151 3152 3152 3153 3153 3154 3154 3154 3154 3154 3153 3150 3149 3149 3150 3149 3149 3149 3148 3147 3146 3145 3144 3143 3143 3144 3144 3144 3145 3145 3144 3145 3145 3145 3144 3144 3144 3144 3144 3144 3144 3143 3142 3140 3138 3135 3136 3137 3138 3140 3141 3142 3142 3141 3141 3143 3144 3146 3148 3147 3146 3143 3141 3140 3140 3138 3136 3140 3144 3146 3148 3150 3151 3154 3155 3156 3158 3158 3160 3161 3162 3164 3167 3169 3172
3151 3150 3150 3153 3154 3153 3154 3154 3154 3154 3154 3154 3153 3152 3151 3151 3150 3150 3150 3150 3149 3149 3148 3146 3146 3145 3144 3144 3144 3144 3144 3145 3146 3146 3145 3145 3145 3145 3144 3144 3145 3145 3144 3144 3144 3143 3142 3140 3138 3138 3138 3137 3140 3142 3142 3142 3142 3141 3141 3142 3144 3144 3145 3146 3146 3143 3140 3139 3136 3133 3137 3143 3146 3148 3150 3152 3153 3155 3156 3157 3158 3160 3161 3162 3164 3166 3167 3170
3151 3150 3151 3154 3154 3153 3154 3154 3154 3154 3154 3154 3152 3150 3150 3151 3151 3151 3151 3150 3149 3149 3148 3147 3146 3145 3145 3144 3144 3144 3144 3144 3145 3146 3146 3146 3146 3145 3145 3145 3145 3145 3145 3145 3144 3143 3142 3141 3139 3139 3138 3138 3140 3141 3140 3140 3141 3142 3142 3142 3142 3141 3142 3144 3145 3144 3142 3140 3137 3133 3136 3143 3146 3148 3150 3151 3153 3154 3155 3156 3158 3159 3160 3161 3163 3164 3166 3168
3151 3151 3154 3154 3154 3154 3154 3154 3154 3154 3154 3153 3152 3151 3151 3151 3151 3151 3151 3150 3150 3149 3148 3147 3147 3146 3146 3146 3145 3145 3145 3145 3145 3146 3146 3146 3147 3146 3146 3146 3145 3145 3145 3145 3144 3143 3143 3142 3140 3139 3138 3138 3138 3139 3139 3139 3140 3142 3142 3141 3140 3139 3140 3142 3142 3143 3143 3141 3139 3136 3139 3145 3146 3147 3150 3150 3151 3153 3153 3155 3157 3158 3159 3160 3161 3163 3165 3166
3150 3152 3154 3155 3154 3154 3154 3153 3153 3153 3153 3152 3151 3151 3152 3152 3151 3151 3151 3150 3149 3149 3149 3148 3147 3147 3146 3146 3146 3145 3146 3146 3146 3146 3146 3147 3147 3147 3147 3147 3147 3146 3146 3145 3145 3143 3143 3143 3142 3141 3139 3138 3137 3138 3139 3139 3138 3140 3141 3141 3139 3138 3140 3141 3139 3140 3141 3141 3140 3139 3142 3147 3146 3147 3150 3149 3148 3151 3153 3155 3157 3157 3158 3159 3160 3162 3163 3165
3151 3152 3155 3155 3154 3155 3154 3153 3152 3153 3153 3151 3150 3150 3151 3152 3152 3151 3151 3150 3150 3150 3149 3148 3147 3147 3146 3146 3146 3146 3146 3146 3145 3146 3146 3147 3147 3147 3147 3148 3148 3147 3146 3146 3144 3143 3143 3144 3144 3143 3141 3139 3136 3136 3138 3138 3138 3139 3140 3141 3140 3139 3140 3139 3137 3137 3139 3140 3141 3139 3141 3146 3147 3148 3150 3148 3147 3150 3152 3153 3155 3156 3157 3158 3159 3160 3161 3163
3151 3153 3155 3153 3153 3154 3154 3152 3152 3153 3153 3151 3151 3152 3151 3151 3152 3151 3151 3151 3150 3150 3149 3147 3147 3148 3148 3148 3147 3147 3146 3146 3146 3146 3146 3147 3147 3147 3148 3148 3148 3147 3147 3146 3145 3144 3144 3145 3145 3144 3142 3140 3138 3137 3136 3137 3137 3137 3137 3139 3140 3139 3138 3137 3137 3139 3138 3136 3137 3136 3138 3144 3147 3147 3149 3147 3145 3149 3151 3151 3153 3155 3156 3157 3158 3159 3159 3160
3150 3152 3154 3152 3151 3153 3153 3152 3152 3152 3151 3150 3151 3152 3151 3151 3152 3151 3151 3151 3150 3150 3149 3148 3148 3148 3148 3148 3148 3148 3147 3148 3148 3147 3147 3147 3146 3147 3148 3148 3148 3147 3147 3146 3146 3145 3146 3146 3146 3144 3143 3142 3141 3139 3137 3135 3135 3135 3136 3137 3139 3139 3139 3139 3138 3139 3138 3135 3135 3136 3139 3145 3147 3147 3148 3147 3145 3148 3151 3152 3152 3154 3155 3156 3157 3158 3158 3159
3150 3151 3153 3152 3151 3151 3151 3151 3152 3150 3149 3149 3150 3151 3151 3151 3151 3151 3151 3151 3150 3150 3149 3149 3149 3149 3149 3148 3148 3148 3148 3148 3148 3148 3147 3147 3146 3147 3148 3148 3148 3147 3146 3146 3146 3147 3147 3147 3147 3146 3146 3147 3146 3142 3139 3138 3136 3136 3137 3138 3138 3138 3140 3140 3139 3139 3139 3138 3138 3139 3142 3146 3147 3148 3148 3147 3146 3145 3149 3154 3154 3153 3155 3156 3156 3157 3157 3157
3149 3150 3153 3153 3151 3152 3151 3150 3151 3150 3149 3149 3149 3150 3150 3150 3150 3150 3150 3150 3150 3150 3150 3150 3149 3149 3149 3148 3148 3149 3148 3148 3148 3148 3148 3148 3147 3147 3148 3148 3148 3147 3146 3146 3146 3147 3147 3147 3147 3146 3146 3148 3147 3145 3143 3141 3139 3138 3138 3137 3137 3137 3138 3139 3138 3139 3141 3141 3141 3142 3145 3147 3148 3148 3148 3148 3147 3145 3147 3153 3154 3153 3155 3156 3156 3156 3156 3156
3148 3148 3151 3152 3151 3151 3151 3150 3151 3151 3149 3149 3149 3149 3150 3150 3150 3150 3149 3149 3150 3149 3149 3149 3149 3149 3149 3148 3148 3148 3149 3149 3148 3147 3148 3148 3148 3148 3148 3148 3148 3147 3146 3146 3146 3146 3147 3146 3145 3145 3145 3145 3146 3145 3144 3143 3141 3139 3138 3137 3137 3137 3139 3140 3139 3140 3142 3143 3142 3143 3146 3149 3149 3148 3147 3148 3149 3148 3147 3150 3154 3155 3155 3156 3157 3157 3157 3157
3148 3148 3150 3151 3150 3150 3149 3149 3150 3150 3149 3149 3148 3148 3149 3150 3149 3149 3149 3149 3149 3149 3149 3149 3149 3149 3149 3148 3148 3148 3149 3149 3148 3147 3148 3148 3148 3148 3148 3148 3147 3147 3147 3146 3146 3146 3146 3145 3144 3144 3143 3143 3144 3144 3144 3144 3143 3141 3140 3140 3140 3140 3140 3141 3141 3141 3143 3144 3143 3144 3146 3147 3148 3148 3147 3148 3149 3149 3148 3149 3152 3155 3155 3156 3157 3157 3157 3157
3148 3148 3148 3148 3149 3148 3148 3148 3148 3148 3147 3148 3148 3148 3149 3149 3149 3149 3149 3149 3149 3149 3149 3149 3149 3149 3148 3148 3148 3148 3148 3148 3147 3147 3148 3148 3148 3148 3148 3148 3147 3147 3147 3147 3146 3146 3145 3144 3144 3143 3142 3142 3142 3142 3143 3143 3143 3142 3142 3142 3142 3142 3141 3141 3142 3142 3143 3144 3144 3146 3146 3146 3147 3148 3148 3149 3148 3149 3149 3149 3151 3153 3152 3154 3157 3158 3158 3157
3146 3144 3143 3144 3145 3145 3146 3147 3148 3148 3147 3147 3148 3149 3149 3149 3148 3148 3148 3149 3149 3149 3149 3149 3148 3148 3148 3148 3148 3148 3148 3147 3147 3148 3148 3148 3148 3148 3147 3147 3147 3147 3147 3147 3146 3145 3145 3144 3143 3143 3142 3141 3141 3141 3141 3142 3143 3143 3143 3143 3143 3143 3143 3143 3143 3143 3144 3145 3145 3146 3146 3145 3146 3147 3148 3149 3148 3148 3149 3149 3150 3151 3150 3151 3156 3159 3158 3156
3142 3141 3142 3143 3144 3145 3146 3146 3147 3148 3147 3147 3147 3147 3148 3148 3148 3148 3148 3148 3149 3149 3149 3148 3148 3148 3148 3148 3148 3148 3147 3147 3148 3148 3148 3148 3147 3147 3146 3146 3147 3147 3147 3146 3146 3145 3145 3144 3143 3143 3142 3140 3140 3140 3140 3142 3143 3144 3144 3144 3144 3143 3143 3145 3144 3143 3144 3145 3146 3147 3147 3146 3146 3147 3148 3148 3148 3147 3148 3148 3148 3150 3150 3150 3152 3155 3156 3155
3139 3140 3142 3143 3143 3145 3146 3146 3146 3147 3146 3146 3146 3146 3146 3147 3147 3147 3148 3148 3148 3148 3148 3147 3147 3147 3148 3148 3148 3147 3147 3147 3147 3147 3147 3147 3147 3147 3146 3146 3146 3146 3146 3146 3145 3145 3145 3144 3143 3143 3142 3140 3140 3140 3140 3142 3143 3143 3143 3143 3143 3143 3144 3145 3144 3144 3145 3146 3147 3147 3146 3145 3146 3147 3147 3147 3146 3146 3147 3148 3148 3148 3149 3149 3149 3150 3153 3154